Weather History for Newport News, VA

Change the Weather History Date:

Saturday, October 29, 2011

  Actual Average Record
Temperature  
Mean Temperature 47 °F -  
Max Temperature 59 °F 66 °F 79 °F (1974)
Min Temperature 37 °F 48 °F 28 °F (1952)
Degree Days  
Heating Degree Days 18    
Moisture  
Dew Point 48 °F    
Average Humidity 93    
Maximum Humidity 100    
Minimum Humidity 79    
Precipitation  
Precipitation 0.78 in - - ()
Sea Level Pressure  
Sea Level Pressure 29.87 in    
Wind  
Wind Speed 13 mph (North)    
Max Wind Speed 22 mph    
Max Gust Speed 32 mph    
Visibility 6 miles    
Events Rain    
Averages and records for this station are not official NWS values.
T = Trace of Precipitation, MM = Missing Value Source: NWS Daily Summary

Daily Weather History Graph

Daily Weather History Graph

Search for Another Location

Airport:

Trip Planner

Search our weather history database for the weather conditions in past years. The results will help you decide how hot, cold, wet, or windy it might be!

Date:

Astronomy

Oct. 29, 2011 Rise Set
Actual Time 7:26 AM EDT 6:11 PM EDT
Civil Twilight 7:00 AM EDT 6:38 PM EDT
Nautical Twilight 6:29 AM EDT 7:09 PM EDT
Astronomical Twilight 5:59 AM EDT 7:39 PM EDT
Moon 10:42 AM EDT (10/29) 8:37 PM EDT (10/29)
Length of Visible Light 11h 38m
Length of Day
10h 44m
Waxing Crescent, 11% of the Moon is Illuminated
Oct 29
Waxing Crescent
Nov 2
First Quarter
Nov 10
Full
Nov 18
Last Quarter
Nov 25
New

Hourly Weather History & Observations

Time (EDT) Temp. Windchill Dew Point Humidity Pressure Visibility Wind Dir Wind Speed Gust Speed Precip Events Conditions
12:03 AM 50.0 °F - 48.2 °F 94% 30.06 in 3.0 mi ENE 13.8 mph - 0.01 in Rain Light Rain
12:54 AM 51.1 °F - 50.0 °F 96% 30.05 in 3.0 mi NE 8.1 mph - 0.02 in Rain Light Rain
1:25 AM 51.8 °F - 51.8 °F 100% 30.04 in 2.5 mi ENE 12.7 mph 19.6 mph 0.01 in Rain Light Rain
1:41 AM 51.8 °F - 51.8 °F 100% 30.03 in 3.0 mi East 13.8 mph - 0.02 in Rain Light Rain
1:54 AM 52.0 °F - 51.1 °F 97% 30.02 in 3.0 mi ENE 11.5 mph - 0.02 in Rain Light Rain
2:54 AM 52.0 °F - 51.1 °F 97% 29.98 in 4.0 mi East 19.6 mph 28.8 mph 0.01 in   Overcast
3:54 AM 53.1 °F - 51.1 °F 93% 29.93 in 8.0 mi ENE 15.0 mph 24.2 mph 0.00 in   Overcast
4:26 AM 53.6 °F - 51.8 °F 94% 29.92 in 10.0 mi ENE 17.3 mph - 0.00 in Rain Light Rain
4:54 AM 54.0 °F - 52.0 °F 93% 29.90 in 10.0 mi ENE 13.8 mph - 0.00 in   Overcast
5:05 AM 53.6 °F - 51.8 °F 94% 29.90 in 10.0 mi ENE 11.5 mph 21.9 mph N/A   Overcast
5:54 AM 55.4 °F - 51.8 °F 88% 29.86 in 10.0 mi East 16.1 mph 24.2 mph N/A Rain Light Rain
6:54 AM 57.0 °F - 54.0 °F 89% 29.82 in 10.0 mi East 12.7 mph - 0.00 in   Overcast
7:26 AM 57.2 °F - 55.4 °F 94% 29.79 in 4.0 mi East 10.4 mph - 0.08 in Rain Rain
7:33 AM 57.2 °F - 55.4 °F 94% 29.78 in 4.0 mi East 16.1 mph - 0.09 in Rain Light Rain
7:47 AM 57.2 °F - 55.4 °F 94% 29.78 in 3.0 mi East 13.8 mph 23.0 mph 0.09 in Rain Light Rain
7:54 AM 57.9 °F - 55.9 °F 93% 29.77 in 3.0 mi East 13.8 mph - 0.09 in Rain Light Rain
8:03 AM 57.2 °F - 55.4 °F 94% 29.78 in 4.0 mi East 13.8 mph - 0.00 in Rain Light Rain
8:14 AM 57.2 °F - 57.2 °F 100% 29.79 in 1.8 mi NW 11.5 mph 19.6 mph 0.05 in Rain Heavy Rain
8:19 AM 55.4 °F - 55.4 °F 100% 29.78 in 0.8 mi NNW 21.9 mph 31.1 mph 0.16 in Rain Heavy Rain
8:43 AM 55.4 °F - 53.6 °F 94% 29.79 in 1.2 mi North 16.1 mph 21.9 mph 0.45 in Rain Heavy Rain
8:50 AM 53.6 °F - 53.6 °F 100% 29.79 in 1.8 mi North 13.8 mph 21.9 mph 0.48 in Rain Rain
8:54 AM 54.0 °F - 53.1 °F 97% 29.78 in 2.5 mi North 16.1 mph 21.9 mph 0.49 in Rain Rain
9:08 AM 53.6 °F - 53.6 °F 100% 29.78 in 3.0 mi North 11.5 mph - 0.05 in Rain Rain
9:14 AM 53.6 °F - 53.6 °F 100% 29.80 in 1.8 mi North 6.9 mph 18.4 mph 0.10 in Rain Heavy Rain
9:21 AM 53.6 °F - 53.6 °F 100% 29.79 in 2.0 mi North 9.2 mph - 0.12 in Rain Light Rain
9:30 AM 53.6 °F - 51.8 °F 94% 29.77 in 10.0 mi NNE 9.2 mph - 0.12 in Rain Light Rain
9:54 AM 52.0 °F - 51.1 °F 97% 29.82 in 3.0 mi NW 12.7 mph - 0.15 in Rain Rain
10:03 AM 51.8 °F - 50.0 °F 94% 29.82 in 2.5 mi NW 11.5 mph - 0.03 in Rain Rain
10:11 AM 51.8 °F - 50.0 °F 94% 29.82 in 1.5 mi NW 10.4 mph - 0.08 in Rain Rain
10:20 AM 51.8 °F - 50.0 °F 94% 29.81 in 3.0 mi NNW 9.2 mph - 0.09 in Rain Light Rain
10:51 AM 50.0 °F - 48.2 °F 94% 29.81 in 10.0 mi NNW 12.7 mph 18.4 mph 0.10 in Rain Light Rain
10:54 AM 50.0 °F - 48.2 °F 94% 29.80 in 10.0 mi NNW 12.7 mph - N/A Rain Light Rain
10:58 AM 50.0 °F - 48.2 °F 94% 29.80 in 10.0 mi North 11.5 mph 19.6 mph 0.00 in Rain Light Rain
11:05 AM 48.2 °F - 46.4 °F 93% 29.78 in 10.0 mi North 10.4 mph 19.6 mph 0.00 in Rain Light Rain
11:14 AM 50.0 °F - 48.2 °F 94% 29.79 in 10.0 mi North 6.9 mph - 0.00 in   Overcast
11:54 AM 51.1 °F - 48.9 °F 92% 29.76 in 10.0 mi NNW 8.1 mph - 0.00 in   Overcast
12:54 PM 48.2 °F - 46.4 °F 93% 29.79 in 3.0 mi WNW 15.0 mph 21.9 mph N/A   Overcast
1:11 PM 48.2 °F - 46.4 °F 93% 29.79 in 3.0 mi WNW 12.7 mph 24.2 mph N/A   Overcast
1:22 PM 48.2 °F - 46.4 °F 93% 29.79 in 2.5 mi WNW 13.8 mph 23.0 mph N/A   Overcast
1:27 PM 48.2 °F - 46.4 °F 93% 29.79 in 3.0 mi WNW 11.5 mph 21.9 mph N/A   Overcast
1:29 PM 48.2 °F - 46.4 °F 93% 29.79 in 2.5 mi WNW 11.5 mph 20.7 mph N/A   Overcast
1:31 PM 48.2 °F - 46.4 °F 93% 29.79 in 3.0 mi NW 15.0 mph 20.7 mph N/A   Overcast
1:54 PM 46.9 °F - 45.0 °F 93% 29.79 in 5.0 mi WNW 12.7 mph 23.0 mph N/A   Overcast
2:54 PM 42.1 °F 34.2 °F 39.0 °F 89% 29.83 in 5.0 mi NW 16.1 mph 28.8 mph N/A   Overcast
3:09 PM 42.8 °F 35.1 °F 39.2 °F 87% 29.83 in 4.0 mi NW 16.1 mph 24.2 mph N/A   Overcast
3:54 PM 42.1 °F 34.2 °F 37.9 °F 85% 29.86 in 10.0 mi NW 16.1 mph 32.2 mph N/A   Overcast
4:54 PM 41.0 °F 31.9 °F 37.0 °F 86% 29.90 in 10.0 mi NW 19.6 mph 26.5 mph 0.00 in Rain Light Rain
5:54 PM 41.0 °F 32.5 °F 36.0 °F 82% 29.93 in 10.0 mi NW 17.3 mph 27.6 mph N/A   Overcast
6:54 PM 41.0 °F 33.9 °F 35.1 °F 79% 29.96 in 10.0 mi NW 12.7 mph 21.9 mph N/A   Overcast
7:54 PM 39.9 °F 31.4 °F 36.0 °F 86% 30.00 in 10.0 mi NW 16.1 mph 28.8 mph 0.00 in   Overcast
8:54 PM 39.9 °F 32.1 °F 36.0 °F 86% 30.01 in 10.0 mi NNW 13.8 mph 20.7 mph N/A   Overcast
9:17 PM 39.2 °F 31.6 °F 35.6 °F 87% 30.02 in 10.0 mi NW 12.7 mph - N/A   Overcast
9:54 PM 39.0 °F 31.8 °F 35.1 °F 86% 30.04 in 10.0 mi NW 11.5 mph 23.0 mph N/A   Mostly Cloudy
10:02 PM 39.2 °F 33.0 °F 35.6 °F 87% 30.03 in 10.0 mi NW 9.2 mph - 0.00 in   Scattered Clouds
10:54 PM 37.9 °F 31.5 °F 34.0 °F 86% 30.05 in 10.0 mi NW 9.2 mph - 0.00 in   Clear
11:54 PM 37.0 °F 29.3 °F 34.0 °F 89% 30.06 in 10.0 mi NW 11.5 mph 18.4 mph 0.00 in Rain Light Rain